This is the latest recevied weather packets stored in our database for station/object WY7EM. If no packets are shown the sender has not sent any weather packets the latest 10 day(s).
| Time | Temp. | Humidity | Pressure | Rain* | Wind** | Luminosity | Snow |
|---|---|---|---|---|---|---|---|
| 1777597874 | 21.11° C | 18% | 1010.7 hPa | 0 mm | - | 35 W/m² | - |
| 1777597569 | 21.11° C | 18% | 1010.4 hPa | 0 mm | - | 50 W/m² | - |
| 1777597264 | 21.11° C | 18% | 1010.6 hPa | 0 mm | - | 47 W/m² | - |
| 1777596960 | 21.67° C | 18% | 1010.7 hPa | 0 mm | - | 43 W/m² | - |
| 1777596657 | 22.22° C | 18% | 1010.6 hPa | 0 mm | - | 124 W/m² | - |
| 1777596354 | 22.78° C | 17% | 1010.5 hPa | 0 mm | - | 134 W/m² | - |
| 1777596052 | 22.22° C | 17% | 1010.5 hPa | 0 mm | - | 152 W/m² | - |
| 1777595751 | 22.22° C | 17% | 1010.5 hPa | 0 mm | - | 186 W/m² | - |
| 1777595447 | 22.22° C | 17% | 1010.6 hPa | 0 mm | - | 194 W/m² | - |
| 1777595143 | 22.22° C | 17% | 1010.7 hPa | 0 mm | - | 229 W/m² | - |
| 1777594840 | 22.78° C | 17% | 1010.7 hPa | 0 mm | - | 257 W/m² | - |
| 1777594536 | 22.78° C | 17% | 1010.7 hPa | 0 mm | - | 280 W/m² | - |
| 1777594232 | 22.78° C | 17% | 1010.6 hPa | 0 mm | - | 299 W/m² | - |
| 1777593928 | 22.78° C | 17% | 1010.6 hPa | 0 mm | - | 317 W/m² | - |
| 1777593625 | 22.78° C | 17% | 1010.5 hPa | 0 mm | - | 335 W/m² | - |
| 1777593320 | 23.89° C | 16% | 1010.8 hPa | 0 mm | - | 353 W/m² | - |
| 1777593015 | 23.33° C | 17% | 1010.7 hPa | 0 mm | - | 371 W/m² | - |
| 1777592709 | 23.33° C | 16% | 1010.6 hPa | 0 mm | - | 389 W/m² | - |
| 1777592405 | 22.78° C | 16% | 1010.7 hPa | 0 mm | - | 405 W/m² | - |
| 1777592100 | 22.78° C | 17% | 1010.7 hPa | 0 mm | - | 421 W/m² | - |
| 1777591798 | 22.78° C | 17% | 1010.6 hPa | 0 mm | - | 437 W/m² | - |
| 1777591494 | 22.78° C | 17% | 1010.8 hPa | 0 mm | - | 454 W/m² | - |
| 1777591190 | 23.33° C | 17% | 1010.8 hPa | 0 mm | - | 467 W/m² | - |
| 1777590884 | 22.78° C | 17% | 1010.8 hPa | 0 mm | - | 480 W/m² | - |
| 1777590582 | 22.22° C | 17% | 1010.8 hPa | 0 mm | - | 496 W/m² | - |
* Rain latest hour (hover to see other rain measurements)
** Current wind speed in m/s (hover to see current wind gust speed)